www.pogodaiklimat.ru

Погода и климат >> Архив погоды >> Австралия >> Западная Австралия >> Уорбертон


ПОГОДА в Уорбертоне

  • Прогноз погоды в Уорбертоне
  • Монитор погоды в Уорбертоне

АРХИВ ПОГОДЫ в Уорбертоне

Время (UTC), дата Ветер
(напр.,м/с)
 
Видим.   Явления Облачность Т
(С)
Тd
(С)
f
(%)
Тe
(С)
Тes
(С)
Комфортность P
(гПа)
Po
(гПа)
Тmin
(С)
Tmax
(С)
R
(мм)
R24
(мм)
S
(см)
13 15.09 С 3 н/о н/о +22.3 -13.5 8 +20 +20 1017.8 965.1 +35.7
15 15.09 штиль 0 н/о н/о +18.8 -12.2 11 +19 +19 1017.2 964.5
16 15.09 штиль 0 н/о н/о +17.0 -13.6 11 +17 +17 1017.1 964.4
18 15.09 СВ 3 н/о н/о +14.7 -13.4 13 +15 +15 1016.3 963.7
19 15.09 Ю 7 н/о н/о +14.7 -12.5 14 +13 +13 1016.6 964.0
21 15.09 ЮВ 4 н/о н/о +17.3 +4.3 42 +17 +17 1018.2 965.5
22 15.09 В 5 н/о н/о +16.8 +7.4 54 +16 +16 1018.6 965.9
00 16.09 ЮВ 6 н/о н/о +20.3 +8.0 45 +21 +21 комфорт 1020.3 967.5
01 16.09 ЮВ 6 н/о н/о +22.8 +7.8 38 +24 +24 комфорт 1020.2 967.4 +13.5
03 16.09 Ю 6 н/о н/о +26.7 +6.7 28 +26 +26 жарко 1019.6 966.8
04 16.09 Ю 4 н/о н/о +28.9 +6.3 24 +28 +28 жарко 1018.7 966.0
06 16.09 Ю 5 н/о н/о +30.6 +2.8 17 +28 +28 жарко 1016.8 964.2
07 16.09 ЮВ 4 н/о н/о +31.3 +3.4 17 +29 +29 жарко 1016.3 963.7
09 16.09 ЮВ 6 н/о н/о +30.1 +1.5 16 +28 +28 жарко 1016.5 963.9
10 16.09 ЮВ 6 н/о н/о +27.9 +5.5 24 +27 +27 жарко 1016.9 964.3
12 16.09 ЮВ 4 н/о н/о +24.8 +5.1 28 +24 +24 комфорт 1018.3 965.6
13 16.09 ЮВ 5 н/о н/о +23.6 +5.5 31 +24 +24 комфорт 1018.5 965.8 +32.6
15 16.09 В 6 н/о н/о +21.9 +6.2 36 +23 +23 комфорт 1017.9 965.2
16 16.09 В 5 н/о н/о +21.2 +6.3 38 +22 +22 комфорт 1017.9 965.2
18 16.09 В 4 н/о н/о +19.8 +6.5 42 +21 +21 комфорт 1016.6 964.0
19 16.09 В 5 н/о н/о +19.5 +6.6 43 +20 +20 1016.5 963.9
21 16.09 В 3 н/о н/о +18.5 +6.7 46 +19 +19 1017.4 964.7
22 16.09 В 3 н/о н/о +18.2 +6.7 47 +18 +18 1017.7 965.0
00 17.09 СВ 8 н/о н/о +25.7 +5.8 28 +25 +25 комфорт 1018.0 965.3
01 17.09 СВ 7 н/о н/о +28.8 +2.9 19 +27 +27 жарко 1018.1 965.4 +16.9
03 17.09 СВ 6 н/о н/о +33.6 -3.6 9 +30 +30 жарко 1016.9 964.3
04 17.09 С 7 н/о н/о +33.9 -3.4 9 +30 +30 жарко 1015.9 963.3
06 17.09 СЗ 6 н/о н/о +35.5 -5.5 7 +31 +31 жарко 1014.1 961.6
07 17.09 СВ 5 н/о н/о +34.3 -6.4 7 +30 +30 жарко 1013.7 961.2
09 17.09 СЗ 5 н/о н/о +33.7 -6.8 7 +29 +29 жарко 1014.1 961.6
10 17.09 СЗ 3 н/о н/о +30.8 -7.2 8 +27 +27 жарко 1014.5 962.0
12 17.09 С 3 н/о н/о +23.8 -8.4 11 +21 +21 комфорт 1015.8 963.2
13 17.09 С 3 н/о н/о +24.1 -9.4 10 +22 +22 комфорт 1015.8 963.2 +36.5
15 17.09 С 4 н/о н/о +21.1 -9.4 12 +20 +20 1015.2 962.6
16 17.09 С 3 н/о н/о +21.4 -8.1 13 +20 +20 1015.1 962.5
18 17.09 С 4 н/о н/о +20.3 -9.0 13 +20 +20 1014.6 962.1
19 17.09 С 3 н/о н/о +19.5 -9.6 13 +19 +19 1014.3 961.8
21 17.09 С 4 н/о н/о +18.8 -9.2 14 +19 +19 1014.9 962.4
22 17.09 С 5 н/о н/о +21.7 -10.0 11 +20 +20 1015.3 962.7
00 18.09 СЗ 5 н/о н/о +27.0 -10.0 8 +24 +24 комфорт 1016.6 964.0
01 18.09 СЗ 5 н/о н/о +29.4 -9.9 7 +25 +25 комфорт 1016.7 964.1 +17.6
03 18.09 С 8 н/о н/о +35.5 -9.9 5 +31 +31 жарко 1014.9 962.4
04 18.09 С 7 н/о н/о +35.3 -10.0 5 +31 +31 жарко 1014.0 961.5
06 18.09 СЗ 8 н/о н/о +35.9 -12.4 4 +31 +31 жарко 1012.0 959.6
07 18.09 С 6 н/о н/о +35.8 -12.4 4 +31 +31 жарко 1011.5 959.1
09 18.09 С 6 н/о н/о +34.6 -10.5 5 +30 +30 жарко 1011.4 959.0
10 18.09 С 5 н/о н/о +32.0 -12.3 5 +27 +27 жарко 1011.8 959.4
12 18.09 С 5 н/о н/о +29.4 -11.9 6 +25 +25 комфорт 1012.5 960.1
13 18.09 С 4 н/о н/о +27.2 -11.5 7 +24 +24 комфорт 1012.5 960.1 +37.3
15 18.09 С 3 н/о н/о +22.7 -11.8 9 +20 +20 1011.9 959.5
16 18.09 С 3 н/о н/о +21.6 -11.3 10 +20 +20 1011.3 958.9
18 18.09 З 3 н/о н/о +21.2 -11.6 10 +20 +20 1011.0 958.7
19 18.09 С 4 н/о н/о +20.8 -10.7 11 +20 +20 1010.2 957.9
21 18.09 СЗ 5 н/о н/о +22.4 -10.7 10 +20 +20 1011.0 958.7
22 18.09 С 3 н/о н/о +19.9 -10.3 12 +20 +20 1011.6 959.2
00 19.09 СЗ 3 н/о н/о +26.4 -9.0 9 +23 +23 комфорт 1011.7 959.3
01 19.09 ЮЗ 3 н/о н/о +28.8 -7.2 9 +25 +25 комфорт 1011.3 958.9 +19.3
03 19.09 З 7 н/о н/о +32.0 -4.8 9 +28 +28 жарко 1009.9 957.6
04 19.09 З 7 н/о н/о +33.1 -5.5 8 +29 +29 жарко 1008.7 956.5
06 19.09 З 8 н/о н/о +32.6 -4.3 9 +29 +29 жарко 1007.4 955.2
07 19.09 З 9 н/о н/о +32.5 -3.0 10 +29 +29 жарко 1007.5 955.3
09 19.09 З 8 н/о н/о +29.8 -3.8 11 +26 +26 жарко 1007.9 955.7
10 19.09 З 7 н/о н/о +27.8 -3.1 13 +25 +25 комфорт 1008.6 956.4
12 19.09 ЮЗ 6 н/о н/о +24.8 -1.1 18 +23 +23 комфорт 1010.7 958.4
13 19.09 ЮЗ 7 н/о н/о +23.0 +1.4 24 +22 +22 комфорт 1011.5 959.1 +34.6
15 19.09 Ю 8 н/о н/о +19.1 +2.0 32 +19 +19 1012.9 960.5
16 19.09 Ю 8 н/о н/о +18.2 +0.4 30 +17 +17 1013.5 961.0
18 19.09 Ю 8 н/о н/о +15.5 -2.0 30 +14 +14 1014.8 962.3
19 19.09 Ю 9 н/о н/о +14.1 -1.9 33 +12 +12 1015.8 963.2
21 19.09 Ю 10 н/о н/о +11.3 +1.0 49 +8 +8 1018.8 966.1
22 19.09 Ю 7 н/о н/о +10.3 +0.3 50 +7 +7 1020.2 967.4
00 20.09 Ю 8 н/о н/о +12.0 -3.0 35 +9 +9 1021.5 968.6
01 20.09 Ю 8 н/о н/о +13.2 -3.1 32 +11 +11 1021.7 968.8 +10.3
03 20.09 Ю 8 н/о н/о +15.8 -5.8 22 +14 +14 1020.7 967.9
04 20.09 Ю 7 н/о н/о +15.7 -6.5 21 +14 +14 1020.0 967.2
06 20.09 Ю 6 н/о н/о +18.0 -7.4 17 +17 +17 1018.5 965.8
07 20.09 Ю 6 н/о н/о +17.8 -8.3 16 +17 +17 1018.5 965.8
09 20.09 Ю 5 н/о н/о +17.3 -8.7 16 +17 +17 1019.4 966.6
10 20.09 Ю 5 н/о н/о +16.0 -9.0 17 +15 +15 1020.1 967.3
12 20.09 ЮВ 4 н/о н/о +13.6 -8.9 20 +13 +13 1021.7 968.8
13 20.09 ЮВ 4 н/о н/о +12.9 -8.3 22 +12 +12 1021.8 968.9 +24.9
15 20.09 ЮВ 5 н/о н/о +11.6 -7.2 26 +10 +10 1022.0 969.1
16 20.09 ЮВ 4 н/о н/о +10.7 -7.0 28 +9 +9 1022.0 969.1
18 20.09 ЮВ 4 н/о н/о +9.6 -6.7 31 +7 +7 1021.9 969.0
19 20.09 ЮВ 4 н/о н/о +9.0 -6.0 34 +7 +7 1021.9 969.0
21 20.09 ЮВ 5 н/о н/о +8.1 -3.1 45 +5 +5 1023.5 970.5
22 20.09 ЮВ 5 н/о н/о +8.1 -2.5 47 +5 +5 1024.0 971.0
00 21.09 В 7 н/о н/о +12.9 -1.4 37 +11 +11 1024.9 971.8
01 21.09 ЮВ 7 н/о н/о +15.0 -2.4 30 +13 +13 1024.8 971.7 +7.7
03 21.09 ЮВ 6 н/о н/о +17.9 -2.9 24 +17 +17 1023.7 970.7
04 21.09 В 6 н/о н/о +18.4 -4.9 20 +18 +18 1022.9 969.9
06 21.09 В 4 н/о н/о +19.2 -6.4 17 +19 +19 1021.4 968.5
07 21.09 ЮВ 6 н/о н/о +19.8 -7.5 15 +19 +19 1021.0 968.1
09 21.09 ЮВ 5 н/о н/о +18.8 -7.5 16 +18 +18 1021.7 968.8
10 21.09 ЮВ 4 н/о н/о +17.7 -6.9 18 +17 +17 1022.5 969.6
12 21.09 ЮВ 5 н/о н/о +15.5 -5.0 24 +15 +15 1023.8 970.8
13 21.09 ЮВ 5 н/о н/о +14.8 -3.5 28 +14 +14 1024.4 971.4 +20.8
15 21.09 ЮВ 5 н/о н/о +13.2 -3.5 31 +12 +12 1024.2 971.2
16 21.09 ЮВ 6 н/о н/о +12.9 -3.8 31 +11 +11 1024.3 971.3
18 21.09 ЮВ 3 н/о н/о +10.8 -4.4 34 +9 +9 1023.9 970.9
19 21.09 ЮВ 3 н/о н/о +10.0 -4.4 36 +8 +8 1023.9 970.9
21 21.09 ЮВ 4 н/о н/о +9.4 -4.2 38 +7 +7 1025.4 972.3
22 21.09 ЮВ 4 н/о н/о +9.7 -4.3 37 +8 +8 1026.0 972.9
00 22.09 В 8 н/о н/о +16.1 -2.4 28 +15 +15 1027.1 973.9
01 22.09 В 8 н/о н/о +17.5 -2.7 25 +16 +16 1026.9 973.7 +9.2
03 22.09 ЮВ 7 н/о н/о +20.6 -3.8 19 +20 +20 1025.5 972.4
04 22.09 ЮВ 6 н/о н/о +21.9 -5.0 16 +21 +21 комфорт 1024.6 971.6
06 22.09 ЮВ 5 н/о н/о +23.5 -6.5 13 +22 +22 комфорт 1023.3 970.3
07 22.09 ЮВ 6 н/о н/о +23.4 -6.5 13 +21 +21 комфорт 1023.0 970.0
09 22.09 ЮВ 6 н/о н/о +22.2 -7.5 13 +20 +20 1023.7 970.7
10 22.09 ЮВ 5 н/о н/о +20.8 -8.6 13 +20 +20 1024.4 971.4
12 22.09 ЮВ 4 н/о н/о +17.9 -8.2 16 +18 +18 1026.0 972.9
13 22.09 ЮВ 4 н/о н/о +16.8 -8.4 17 +16 +16 1026.1 973.0 +24.2

 

Местоположение метеостанции Уорбертон (Западная Австралия, Австралия): широта -26.13 долгота 126.58 высота над уровнем моря 460 м.

В архиве по умолчанию представлена погода в Уорбертоне за последнюю неделю. Архивные данные за месяц целиком и за предыдущие месяцы, начиная с января 2011 года, Вы можете получить, выбрав интересующий диапазон дат из раскрывающегося списка и нажав кнопку "Ввод!".


*Определитесь, кто Вы:
робот инопланетянин человек

Внимание! Время в таблицах - всемирное. Для получения местного времени необходимо прибавить поправку, которая равна 8 ч.

Смотрите также архив погоды в соседних городах и на ближайших метеорологических станциях:

Погода в Джайлсе (Западная Австралия, Австралия) (212 км)
Погода в Кинторе (Северная территория, Австралия) (425 км)
Погода в Юларе (Северная территория, Австралия) (453 км)
Погода в Лавертоне (Западная Австралия, Австралия) (496 км)
Погода в Форресте (Западная Австралия, Австралия) (544 км)
Погода в Эрнабелле (Южная Австралия, Австралия) (559 км)
Погода в Леонора аэропорту (Западная Австралия, Австралия) (602 км)
Погода в Леинстере (Западная Австралия, Австралия) (613 км)
Погода в Евкле (Западная Австралия, Австралия) (657 км)
Погода в Телфере (Западная Австралия, Австралия) (663 км)

Пояснения к столбцам:

Ветер - указаны скорость ветра в м/с - средняя за 10 мин, порывы в срок и между сроками (в фигурных скобках) и направление, откуда дует ветер: С - северный, СВ - северо-восточный, В - восточный, ЮВ - юго-восточный, Ю - южный, ЮЗ - юго-западный, З - западный, СЗ - северо-западный.
Видимость - горизонтальная дальность видимости в метрах или километрах. При видимости от 1 до 10 км при отсутствии осадков обычно наблюдается дымка, при ухудшении видимости до 1 км и менее - туман. В сухую погоду видимость может ухудшаться дымом, пылью или мглою.
Явления - указаны атмосферные явления, наблюдавшиеся в срок или в последний час перед сроком; фигурными скобками обозначены явления, наблюдавшиеся между сроками (за 1-3 часа до срока); квадратными скобками обозначены град или гололедные отложения с указанием их диаметра в мм.
Облачность - указаны через наклонную черту общая и нижняя облачность в баллах и высота нижней границы облаков в метрах; квадратными скобками обозначены формы облаков: Ci - перистые, Cs - перисто-слоистые, Cc - перисто-кучевые, Ac - высококучевые, As - высокослоистые, Sc - слоисто-кучевые, Ns - слоисто-дождевые, Cu - кучевые, Cb - кучево-дождевые. Подробнее классификацию облаков см. в Атласе облаков (PDF).
T - Температура воздуха - температура, измеренная на высоте 2 м над землей.
Td - Температура точки росы - температура, при понижении до которой содержащийся в воздухе водяной пар достигнет насыщения.
f - Относительная влажность воздуха - влажноcть воздуха, измеренная на высоте 2 м над землей.
Te - Эффективная температура - температура, которую ощущает одетый по сезону человек в тени. Характеристика душности погоды. При расчете учитывается влияние влажности воздуха и скорости ветра на теплоощущения человека.
Tes - Эффективная температура на солнце - температура, которую ощущает человек, с поправкой на солнечный нагрев. Характеристика знойности погоды. Зависит от высоты солнца над горизонтом, облачности и скорости ветра. Ночью, в пасмурную погоду, а также при ветре 12 м/с и более поправка равна нулю.
P - Атмосферное давление - приведенное к уровню моря атмосферное давление.
Po - Атмосферное давление - измеренное на уровне метеостанции атмосферное давление.
Tmin - Минимальная температура - минимум температуры воздуха на высоте 2 м над землей.
Tmax - Максимальная температура - максимум температуры воздуха на высоте 2 м над землей.
R - Количество осадков - Количество выпавших осадков за период времени, мм. При наведении курсора мыши на число - период времени, за который выпало указанное количество осадков.
R24 - Количество осадков - Количество выпавших осадков за 24 часа, мм.
S - Снежный покров - Высота снежного покрова, см. При наведении курсора мыши на число - состояние снежного покрова и степень покрытия местности в баллах.